Regional Weather Roundup
Issued by NWS

Home | Current Version | Previous Version | Graphics & Text | Print | Product List | Glossary On
Versions: 1 2 3 4 5 6 7 8 9 10 11 12 13 14 15 16 17 18 19 20 21 22 23 24 25 26 27 28 29 30 31 32 33 34 35 36 37 38 39 40 41 42 43 44 45 46 47 48 49 50
000
ASUS43 KDMX 291103
RWRIA

WEATHER ROUNDUP FOR IOWA
NATIONAL WEATHER SERVICE DES MOINES IA
600 AM CDT THU SEP 29 2016

NOTE: "FAIR" INDICATES FEW OR NO CLOUDS BELOW 12,000 FEET WITH NO
SIGNIFICANT WEATHER AND/OR OBSTRUCTIONS TO VISIBILITY.

* - THESE STATIONS ARE NOT NWS STATIONS...THUS NOT UNDER NWS
QUALITY CONTROL.  THEY ALSO DO NOT REPORT WEATHER SUCH
AS PRECIPITATION OR FOG.

IAZ001>003-012>014-020>022-031>034-043>046-291200-
   NORTHWEST IOWA

CITY           SKY/WX    TMP DP  RH WIND       PRES   REMARKS
CARROLL *      CLEAR     46  46 100 N7        30.38R
CHEROKEE *     CLEAR     43  43 100 NE3       30.40S
DENISON *      CLEAR     45  45 100 CALM      30.37R FOG
LE MARS *      CLOUDY    41  39  93 CALM      30.43R
ORANGE CITY *  CLEAR     45  45 100 CALM      30.42R
SHELDON *      CLEAR     39  39 100 N5        30.41R FOG
SIOUX CITY     CLEAR     43  41  93 NW5       30.42R
SPENCER        CLEAR     41  40  96 NW3       30.41R FOG
STORM LAKE *   CLEAR     46  46 100 NE7       30.40R
$$

IAZ055>058-069>071-079>083-090>094-291200-
   SOUTHWEST IOWA

CITY           SKY/WX    TMP DP  RH WIND       PRES   REMARKS
ATLANTIC *     CLEAR     46  46 100 N3        30.37R
AUDUBON *      CLEAR     46  45  93 CALM      30.39R
CLARINDA *       N/A     46  46 100 MISG      30.37R FOG
COUNCIL BLFS * CLEAR     46  46 100 N6        30.38R
CRESTON *      CLEAR     50  48  93 N8        30.36R
HARLAN  *      CLEAR     45  45 100 N3        30.41R
LAMONI         CLEAR     49  48  97 N9        30.33R
RED OAK *      CLEAR     45  45 100 N5        30.37R
SHENANDOAH *   CLEAR     46  45  93 CALM      30.38R
$$

IAZ047>049-059>061-072>074-084-291200-
   CENTRAL IOWA

CITY           SKY/WX    TMP DP  RH WIND       PRES   REMARKS
AMES           CLEAR     47  47 100 N5        30.36R
ANKENY *         N/A    N/A N/A N/A MISG        N/A
BOONE *        CLEAR     46  46 100 N8        30.36R
CHARITON *       N/A     48  48 100 NW7       30.33R
DES MOINES     CLEAR     53  50  89 N9        30.35R
GRINNELL*      CLEAR     48  47  95 NW5       30.33S
KNOXVILLE *    CLEAR     52  48  87 N8        30.32R
MARSHALLTOWN   CLEAR     49  49 100 N9        30.34R
NEWTON *       CLEAR     50  48  93 N8        30.32S
PELLA *        CLEAR     49  48  97 N3        30.33R
PERRY *          N/A     48  48 100 N6        30.37R
$$

IAZ004>006-015-016-023>025-035-036-291200-
   NORTH CENTRAL IOWA

CITY           SKY/WX    TMP DP  RH WIND       PRES   REMARKS
ALGONA *       CLEAR     45  45 100 N5        30.40S
CLARION *      CLEAR     45  45 100 N3        30.38S
ESTHERVILLE    CLEAR     45  45 100 N7        30.41R
FORT DODGE *   CLEAR     45  41  87 N6        30.39R
MASON CITY     CLOUDY    51  50  96 N7        30.40R
FOREST CITY *  CLOUDY    50  50 100 NE7       30.40R
WEBSTER CITY * CLEAR     46  46 100 N7        30.36R
IOWA FALLS *     N/A     51  49  93 N9        30.36S
$$

IAZ007>011-017>019-026>030-037>042-050>054-066-291200-
   NORTHEAST IOWA

CITY           SKY/WX    TMP DP  RH WIND       PRES   REMARKS
CEDAR RAPIDS   CLEAR     50  50 100 N10       30.29R
CHARLES CITY * CLEAR     48  48 100 N6        30.37R
CLINTON *      CLOUDY    53  51  93 NE14      30.23R
DECORAH *      CLEAR     50  50 100 N8        30.34S
DUBUQUE        MOCLDY    50  49  96 N12       30.27S
MONTICELLO *   CLEAR     50  48  93 N9        30.28R
OELWEIN *      CLEAR     50  50 100 N9        30.34R
WATERLOO       CLEAR     49  47  93 N7        30.34R
$$

IAZ064-065-067-068-078-291200-
   EAST CENTRAL IOWA

CITY           SKY/WX    TMP DP  RH WIND       PRES   REMARKS
DAVENPORT      PTCLDY    52  49  89 N14       30.24R
IOWA CITY      CLEAR     53  49  86 N8        30.28S
MUSCATINE *    CLEAR     54  50  87 N9        30.25R
QUAD CITIES    CLOUDY    55  49  80 VRB6G17   30.22R
$$

IAZ062-063-075>077-085>089-095>099-291200-
   SOUTHEAST IOWA

CITY           SKY/WX    TMP DP  RH WIND       PRES   REMARKS
BURLINGTON     CLEAR     51  50  96 N9        30.22R
FAIRFIELD *    CLEAR     50  46  87 NW9       30.27S
FORT MADISON * CLEAR     52  48  87 NW9       30.23S
KEOKUK *       CLEAR     52  50  93 NW8       30.23R
OSKALOOSA *      N/A     47  47  97 N6        30.30S
OTTUMWA        CLEAR     48  45  89 N10       30.30R
WASHINGTON *     N/A    N/A N/A N/A MISG        N/A
$$

ABBREVIATIONS USED IN REMARKS
   TC - TEMPERATURES IN CELSIUS
  WCI - WIND CHILL INDEX
   HX - HEAT INDEX
  VSB - VISIBILITY
$$




USA.gov is the U.S. government's official web portal to all federal, state and local government web resources and services.